Zurück zum Katalog

DELTA 1 DEB

AktivLEO
NORAD 12532·DEBRIS·🇺🇸 United States

Gestartet Jul 29, 1976 von Vandenberg Space Force Base

Loading…

Nächste Überflüge (nächste 24 Stunden)

TLE

AktuellSource: Space-Track

Epoche: Sep 13, 2026, 22:36 UTC

1 12532U 76077DM  26256.94205229  .00000891  00000-0  37191-2 0  9995
2 12532 102.1397 261.2056 0244538 106.3906 324.7441 12.78559009392152

Verfolge DELTA 1 DEB in Echtzeit mit AllMySat

Download on the App Store